Simultaneous Nadir Overpasses (SNOs) Predictions

Prediction of SNOs between GOES-16 and NPP Satellite Orbit:

Table of predicted SNOs for the next 14.0 days since TLE Epoch: 11/24/2018
Index Date Time (GOES-16) GOES-16 Lat,Lon NPP Lat,Lon Distance(km) Time Diff (sec)
1 11/25/2018 06:39:03 0.00, -75.19 0.65, -78.04 324.95 80
2 11/26/2018 06:17:38 0.00, -75.19 -0.37, -73.51 191.14 80
3 11/27/2018 18:39:35 -0.00, -75.19 -0.83, -78.82 413.94 80
4 11/28/2018 18:23:30 -0.00, -75.19 0.19, -74.29 102.52 80
5 11/30/2018 06:45:18 0.00, -75.20 1.00, -79.56 497.35 80
6 12/01/2018 06:23:53 0.00, -75.20 -0.03, -75.03 19.54 80
7 12/03/2018 18:27:05 0.00, -75.22 -0.14, -75.81 66.86 80
8 12/04/2018 18:11:00 0.00, -75.23 0.89, -71.28 450.66 80
9 12/06/2018 06:32:48 -0.01, -75.26 0.31, -76.55 147.79 80
10 12/07/2018 06:11:23 -0.01, -75.27 -0.72, -72.02 369.89 80




NCC Satellite Simultaneous Nadir Overpasses (SNOs) Prediction Service
